This is the latest recevied weather packets stored in our database for station/object WC4PEM-4. If no packets are shown the sender has not sent any weather packets the latest 10 day(s).
| Time | Temp. | Humidity | Pressure | Rain* | Wind** | Luminosity | Snow |
|---|---|---|---|---|---|---|---|
| 1787797293 | 22.78° C | 95% | 1017 hPa | 1.52 mm | - | - | - |
| 1787796996 | 22.78° C | 95% | 1017.1 hPa | 1.78 mm | - | - | - |
| 1787796775 | 22.78° C | 95% | 1017 hPa | 2.03 mm | - | - | - |
| 1787796693 | 22.78° C | 95% | 1017 hPa | 2.03 mm | - | - | - |
| 1787796446 | 22.78° C | 95% | 1017 hPa | 2.29 mm | - | - | - |
| 1787796393 | 22.78° C | 95% | 1017 hPa | 2.29 mm | - | - | - |
| 1787796093 | 22.78° C | 95% | 1017 hPa | 2.79 mm | - | - | - |
| 1787795793 | 22.78° C | 95% | 1017.1 hPa | 3.05 mm | - | - | - |
| 1787795493 | 22.78° C | 95% | 1017 hPa | 3.3 mm | - | - | - |
| 1787795193 | 22.78° C | 95% | 1017 hPa | 3.56 mm | - | - | - |
| 1787795005 | 22.78° C | 95% | 1017.2 hPa | 3.3 mm | - | - | - |
| 1787794966 | 22.78° C | 95% | 1017.2 hPa | 3.3 mm | - | - | - |
| 1787794893 | 22.78° C | 95% | 1017.2 hPa | 3.3 mm | - | - | - |
| 1787794593 | 22.78° C | 95% | 1017.2 hPa | 4.32 mm | - | - | - |
| 1787794293 | 22.78° C | 95% | 1017.3 hPa | 5.08 mm | - | - | - |
| 1787793994 | 22.78° C | 95% | 1017.1 hPa | 6.6 mm | - | - | - |
| 1787793693 | 22.78° C | 95% | 1017.1 hPa | 7.37 mm | - | - | - |
| 1787793393 | 22.78° C | 95% | 1017.2 hPa | 7.87 mm | - | - | - |
| 1787793093 | 22.78° C | 95% | 1017.3 hPa | 9.4 mm | - | - | - |
| 1787792842 | 22.78° C | 95% | 1017.3 hPa | 11.94 mm | - | - | - |
| 1787792793 | 22.78° C | 95% | 1017.3 hPa | 11.94 mm | - | - | - |
| 1787792493 | 22.78° C | 95% | 1017.4 hPa | 13.97 mm | - | - | - |
| 1787792193 | 22.78° C | 95% | 1017.3 hPa | 17.78 mm | - | - | - |
| 1787791959 | 22.78° C | 95% | 1017.1 hPa | 21.84 mm | - | - | - |
| 1787791893 | 22.78° C | 95% | 1017.1 hPa | 21.84 mm | - | - | - |
* Rain latest hour (hover to see other rain measurements)
** Current wind speed in m/s (hover to see current wind gust speed)